Regional Weather Roundup
Issued by NWS Newport/Morehead, NC

Current Version | Previous Version | Graphics & Text | Print | Product List | Glossary Off
Versions: 1 2 3 4 5 6 7 8 9 10 11 12 13 14 15 16 17 18 19 20 21 22 23 24 25 26 27 28 29 30 31 32 33 34 35 36 37 38 39 40 41 42 43 44 45 46 47 48 49 50

000
ASUS42 KMHX 270512
RWRMHX
WEATHER ROUNDUP FOR EASTERN NORTH CAROLINA
NATIONAL WEATHER SERVICE NEWPORT/MOREHEAD CITY NC
1200 AM EST FRI FEB 27 2015

NOTE: "FAIR" INDICATES FEW OR NO CLOUDS BELOW 12,000 FEET
WITH NO SIGNIFICANT WEATHER AND/OR OBSTRUCTIONS TO VISIBILITY

NCZ015>017-031-032-045>047-102-103-270600-
NORTH COAST

CITY           SKY/WX    TMP DP  RH WIND       PRES   REMARKS
EDENTON        CLOUDY    32  29  90 CALM      30.16R
ELIZABETH CITY NOT AVBL
KITTY HAWK     CLOUDY    33  29  86 N7        30.12R
MANTEO         MOCLDY    34  28  80 N10       30.13R

$$

NCZ045>047-081-094-103-104-270600-
CENTRAL COAST

CITY           SKY/WX    TMP DP  RH WIND       PRES   REMARKS
FRISCO         CLOUDY    34  31  88 N9G22     30.10R
SWANQUARTER      N/A     32 N/A N/A VRB7      30.12R

$$

NCZ095-097-098-100-101-270600-
SOUTHERN COAST

CITY           SKY/WX    TMP DP  RH WIND       PRES   REMARKS
BEAUFORT       CLOUDY    35  32  88 N9        30.14R
CEDAR ISLAND     N/A     34 N/A N/A NW18      30.18R
JACKSONVILLE   CLOUDY    35  30  82 N10       30.15S
PINEY ISLAND     N/A    N/A N/A N/A MISG      30.14R
WILMINGTON     CLOUDY    36  32  85 N3        30.15S


$$

NCZ011>013-027>030-043-044-078>080-089-090>093-098-270600-
COASTAL PLAIN

CITY           SKY/WX    TMP DP  RH WIND       PRES   REMARKS
AHOSKIE        FOG       29  29  98 CALM      30.18R VSB 1
CLINTON        CLOUDY    34  33  97 CALM      30.18S
ELIZABETHTOWN  CLOUDY    36  32  87 NW3       30.16F
GOLDSBORO      CLOUDY    34  34  99 CALM      30.16R
GREENVILLE     CLOUDY    34  32  93 CALM      30.19R
HAVELOCK       CLOUDY    35  29  78 N9        30.16R
KENANSVILLE    CLOUDY    34  32  93 CALM      30.17S
KINSTON        CLOUDY    35  33  92 NW3       30.18R
NEW BERN       CLOUDY    35  31  85 N6        30.17R
RICHLANDS      CLOUDY    34  28  80 CALM      30.16S
ROCKY MOUNT    FOG       30  29  96 CALM      30.18R VSB 1/4
WASHINGTON     CLOUDY    33  31  93 CALM      30.17R
WHITEVILLE     CLOUDY    36  32  87 CALM      30.16R

$$

AMZ130-135-150-152-154-156-158-170-250-252-270-ANZ085-086-088-633-658-670-270600-
MARINE OBSERVATIONS

STATION/POSITION TIME  TEMP    WIND        PRES    WAVE   SWELL
                       AIR SEA DIR/SP/G            HT/PER HT/PER
                 (UTC) (F)     (DEG/KT/KT) (MB)    (FT/S) (FT/S)
CHESAPEAKE LIGHT 0400   32      10/ 13/ 14 1020.6
64 E VA BEACH    0450   42 60   10/ 17/ 23 1018.2   11/10   8/10
DUCK             0400   33 34   10/ 13/ 17 1018.9
2 E DUCK         0411      35                N/A     8/10   3/11
10 NE DUCK       0422      37                N/A     9/10   3/11
OREGON INLET     0400   33 37  340/ 12/ 19 1018.8
HATTERAS CG      0406   34 40  350/ 23/ 25 1019.0
CAPE LOOKOUT     0500   35     350/ 13/ 16 1020.2
BEAUFORT LAB     0400   35 40  350/ 10/ 14 1019.2
27 SE WRIGHTSVLE NOT AVBL
5 SE WRIGHTSVLE  NOT AVBL
225 S CAPE HAT   0450   62 70  320/ 14/ 19 1016.9    9/10   8/10
41 SE CHARLESTON 0450   46 65  360/ 12/ 16 1020.3    5/10   3/10

$$


USA.gov is the U.S. government's official web portal to all federal, state and local government web resources and services.